Location: Unspecified
(0.0000°N, 0.0000°E)
Time: 01:25:12
(UTC+00:00)

Courier 1B Rocket - Pass Details

Date: 24 November 2019
Orbit: 920 x 1202 km, 28.2° (Epoch: 10 December)

Event Time Altitude Azimuth Distance (km) Brightness Sun altitude
Rises 22:38:35 0° 273° (W) 4,092 - -63.5°
Reaches altitude 10° 22:41:59 10° 261° (W) 3,128 - -64.0°
Maximum altitude 22:48:18 27° 207° (SSW) 2,115 - -64.9°
Drops below altitude 10° 22:54:29 10° 153° (SSE) 3,050 - -65.7°
Sets 22:57:46 0° 140° (SE) 3,971 - -66.1°
